This is the latest recevied weather packets stored in our database for station/object SV9TNF-57. If no packets are shown the sender has not sent any weather packets the latest 10 day(s).
| Time | Temp. | Humidity | Pressure | Rain* | Wind** | Luminosity | Snow |
|---|---|---|---|---|---|---|---|
| 1788028618 | 24.44° C | 64% | 996.7 hPa | 0 mm | 4.92 m/s, 285° | - | - |
| 1788028317 | 24.44° C | 64% | 996.7 hPa | 0 mm | 6.26 m/s, 344° | - | - |
| 1788028017 | 24.44° C | 63% | 996.6 hPa | 0 mm | 1.34 m/s, 335° | - | - |
| 1788027718 | 24.44° C | 63% | 996.4 hPa | 0 mm | 0.89 m/s, 340° | - | - |
| 1788027417 | 24.44° C | 63% | 996.4 hPa | 0 mm | 1.34 m/s, 320° | - | - |
| 1788027117 | 24.44° C | 63% | 996.4 hPa | 0 mm | 0.89 m/s, 285° | - | - |
| 1788026817 | 24.44° C | 63% | 996.3 hPa | 0 mm | 2.24 m/s, 299° | - | - |
| 1788026517 | 24.44° C | 63% | 996.5 hPa | 0 mm | 0.89 m/s, 290° | - | - |
| 1788026217 | 24.44° C | 63% | 996.4 hPa | 0 mm | 1.34 m/s, 299° | - | - |
| 1788025917 | 24.44° C | 63% | 996.2 hPa | 0 mm | 6.71 m/s, 300° | - | - |
| 1788025616 | 24.44° C | 62% | 995.9 hPa | 0 mm | 0.89 m/s, 343° | - | - |
| 1788025316 | 24.44° C | 62% | 996.1 hPa | 0 mm | 2.68 m/s, 1° | - | - |
| 1788025016 | 24.44° C | 62% | 996.3 hPa | 0 mm | 6.26 m/s, 318° | - | - |
| 1788024716 | 24.44° C | 62% | 996 hPa | 0 mm | 4.47 m/s, 328° | - | - |
| 1788024416 | 24.44° C | 62% | 996.1 hPa | 0 mm | 5.36 m/s, 8° | - | - |
| 1788024116 | 24.44° C | 62% | 996.1 hPa | 0 mm | 0.89 m/s, 256° | - | - |
| 1788023816 | 24.44° C | 61% | 995.8 hPa | 0 mm | 2.24 m/s, 304° | - | - |
| 1788023516 | 24.44° C | 61% | 995.9 hPa | 0 mm | 1.34 m/s, 257° | - | - |
| 1788023216 | 24.44° C | 61% | 995.9 hPa | 0 mm | 1.34 m/s, 339° | - | - |
| 1788022916 | 25° C | 61% | 996 hPa | 0 mm | 0.89 m/s, 335° | - | - |
| 1788022615 | 25° C | 61% | 996.1 hPa | 0 mm | 0 m/s | - | - |
| 1788022315 | 25° C | 60% | 996 hPa | 0 mm | 1.34 m/s, 269° | - | - |
| 1788022015 | 25° C | 60% | 996 hPa | 0 mm | 4.02 m/s, 356° | - | - |
| 1788021715 | 25° C | 59% | 995.7 hPa | 0 mm | 0.45 m/s, 325° | - | - |
| 1788021415 | 25° C | 59% | 995.5 hPa | 0 mm | 1.34 m/s, 314° | - | - |
* Rain latest hour (hover to see other rain measurements)
** Current wind speed in m/s (hover to see current wind gust speed)